"Pseudo-MPEC" for C0YWKU2

Created 2019 Sep 12 8:07:08 UT using Find_Orb

Click here for an explanation of pseudo-MPECs

 
 Astrometry: 
     C0YWKU2  C2019 09 07.32139 23 04 26.51 -09 41 42.5    ~978M 21.2 GVNEOCPG96
     C0YWKU2  C2019 09 07.32609 23 04 27.13 -09 40 59.1    ~978M 21.2 GVNEOCPG96
     C0YWKU2  C2019 09 07.33078 23 04 27.79 -09 40 16.5    ~978M 21.6 GVNEOCPG96
     C0YWKU2  C2019 09 07.33548 23 04 28.39 -09 39 32.2    ~978M 21.3 GVNEOCPG96

Station data:
(G96) Mt. Lemmon Survey  (N32.442754 W110.788720)  US/Arizona.  Observers T.
   A. Pruyne, B. M. Africano, E. J. Christensen, G. A. Farneth, D. C. Fuls,
   A. R. Gibbs, A. D. Grauer, H. Groeller, J. A. Johnson, R. A. Kowalski, S.
   M. Larson, G. J. Leonard, D. Rankin, R. L. Seaman, F. C. Shelly. 1.5-m
   reflector + 10K CCD.

Orbital elements:  C0YWKU2
   Perihelion 2019 Sep 6.475965 +/- 39.2 TT = 11:25:23 (JD 2458732.975965)
Epoch 2019 Sep  7.0 TT = JDT 2458733.5   Earth MOID: 0.0055   AutoNEOCP
M   0.47182048 +/- 19               (J2000 ecliptic)
n   0.90036074 +/- 0.391            Peri.  356.69934 +/- 57
a   1.06216425 +/- 0.308            Node   346.60924 +/- 40
e   0.0444931 +/- 0.254             Incl.    0.51329 +/- 4.6
P   1.09/399.83d           H 32.1   G  0.15   U 12.1  SR
q 1.01490518 +/- 0.167    Q 1.10942332 +/- 40.5
From 4 observations 2019 Sept. 7 (20.3 min); mean residual 0".26
Residuals in arcseconds: 
190907 G96  .05-  .04+    190907 G96  .36+  .50-    
190907 G96  .10-  .19+    190907 G96  .21-  .27+    

Ephemerides (geocentric):
Date (UTC) HH   RA              Dec         delta   r     elong  mag " sig PA
---- -- -- --  -------------   -----------  ------ ------ -----  --- ---- ---
2019 09 12 08  23 44 39.437   +01 13 38.17  .00842 1.0149 171.6 22.3  60d 173
2019 09 12 09  23 44 56.007   +01 18 05.45  .00844 1.0149 171.6 22.3  60d 173
2019 09 12 10  23 45 12.528   +01 22 31.94  .00845 1.0149 171.5 22.3  60d 173
2019 09 12 11  23 45 29.003   +01 26 57.65  .00846 1.0149 171.4 22.3  61d 173
2019 09 12 12  23 45 45.430   +01 31 22.56  .00847 1.0149 171.4 22.3  61d 173
2019 09 12 13  23 46 01.810   +01 35 46.68  .00849 1.0149 171.3 22.3  61d 173
2019 09 12 14  23 46 18.143   +01 40 10.03  .00850 1.0149 171.2 22.3  61d 173
2019 09 12 15  23 46 34.429   +01 44 32.59  .00851 1.0149 171.2 22.3  61d 173
2019 09 12 16  23 46 50.669   +01 48 54.36  .00852 1.0149 171.1 22.3  61d 173
2019 09 12 17  23 47 06.862   +01 53 15.37  .00854 1.0149 171.1 22.3  61d 172
2019 09 12 18  23 47 23.009   +01 57 35.59  .00855 1.0149 171.0 22.3  61d 172
2019 09 12 19  23 47 39.110   +02 01 55.04  .00856 1.0149 170.9 22.4  62d 172
2019 09 12 20  23 47 55.166   +02 06 13.72  .00857 1.0149 170.9 22.4  62d 172
2019 09 12 21  23 48 11.175   +02 10 31.63  .00858 1.0149 170.8 22.4  62d 172
2019 09 12 22  23 48 27.139   +02 14 48.77  .00860 1.0149 170.8 22.4  62d 172
2019 09 12 23  23 48 43.058   +02 19 05.15  .00861 1.0149 170.7 22.4  62d 172
2019 09 13 00  23 48 58.931   +02 23 20.76  .00862 1.0149 170.6 22.4  63d 171
2019 09 13 01  23 49 14.760   +02 27 35.61  .00863 1.0149 170.6 22.4  63d 171
2019 09 13 02  23 49 30.543   +02 31 49.69  .00865 1.0149 170.5 22.4  63d 171
2019 09 13 03  23 49 46.282   +02 36 03.03  .00866 1.0149 170.5 22.4  63d 171
2019 09 13 04  23 50 01.976   +02 40 15.60  .00867 1.0149 170.4 22.4  64d 171
2019 09 13 05  23 50 17.626   +02 44 27.42  .00868 1.0149 170.4 22.4  64d 171
2019 09 13 06  23 50 33.231   +02 48 38.49  .00870 1.0149 170.3 22.4  64d 171
2019 09 13 07  23 50 48.793   +02 52 48.81  .00871 1.0149 170.2 22.4  65d 171
2019 09 13 08  23 51 04.311   +02 56 58.38  .00872 1.0149 170.2 22.4  65d 171
2019 09 13 09  23 51 19.784   +03 01 07.21  .00873 1.0149 170.1 22.4  65d 171
2019 09 13 10  23 51 35.215   +03 05 15.29  .00875 1.0149 170.1 22.4  65d 171
2019 09 13 11  23 51 50.601   +03 09 22.63  .00876 1.0149 170.0 22.4  65d 171
2019 09 13 12  23 52 05.945   +03 13 29.23  .00877 1.0149 170.0 22.4  66d 171
2019 09 13 13  23 52 21.245   +03 17 35.10  .00878 1.0149 169.9 22.5  66d 171
2019 09 13 14  23 52 36.502   +03 21 40.22  .00880 1.0149 169.8 22.5  66d 171
2019 09 13 15  23 52 51.717   +03 25 44.62  .00881 1.0149 169.8 22.5  66d 171
2019 09 13 16  23 53 06.888   +03 29 48.28  .00882 1.0149 169.7 22.5  66d 171
2019 09 13 17  23 53 22.018   +03 33 51.21  .00883 1.0149 169.7 22.5  67d 171
2019 09 13 18  23 53 37.104   +03 37 53.42  .00885 1.0149 169.6 22.5  67d 171
2019 09 13 19  23 53 52.149   +03 41 54.90  .00886 1.0149 169.6 22.5  67d 171
2019 09 13 20  23 54 07.151   +03 45 55.65  .00887 1.0149 169.5 22.5  67d 171
2019 09 13 21  23 54 22.111   +03 49 55.68  .00888 1.0149 169.5 22.5  67d 171
2019 09 13 22  23 54 37.030   +03 53 55.00  .00890 1.0149 169.4 22.5  67d 171
2019 09 13 23  23 54 51.907   +03 57 53.59  .00891 1.0149 169.4 22.5  68d 171
2019 09 14 00  23 55 06.742   +04 01 51.47  .00892 1.0149 169.3 22.5  68d 171
2019 09 14 01  23 55 21.536   +04 05 48.64  .00893 1.0149 169.3 22.5  68d 171
2019 09 14 02  23 55 36.288   +04 09 45.09  .00895 1.0149 169.2 22.5  68d 171
2019 09 14 03  23 55 51.000   +04 13 40.83  .00896 1.0149 169.1 22.5  68d 171
2019 09 14 04  23 56 05.670   +04 17 35.87  .00897 1.0149 169.1 22.5  68d 171
2019 09 14 05  23 56 20.300   +04 21 30.20  .00898 1.0149 169.0 22.5  68d 171
2019 09 14 06  23 56 34.889   +04 25 23.82  .00900 1.0149 169.0 22.5  69d 171
2019 09 14 07  23 56 49.437   +04 29 16.75  .00901 1.0149 168.9 22.5  69d 171